Погода в Боброве

Россия / Воронежская область     51°26′16″N   38°31′40″E
темп.,
°C
ветер,
м/с
пор.,
м/с
влажн.,
%
обл.,
%
осадки,
мм/ч
давл.,
гПа
погр.,
м
13 мая, чт
чт1300:00+8юв369134 0.1 1017114
03:00+7вюв4894100 0.1 1016134
06:00+9ююв2596100 2.0 1015222
09:00+10юв3994100 7.9 1015503
12:00+15ююв6880100 2.0 1015933
15:00+15ю478195 3.1 1015578
18:00+17ю36755 0.6 1014836
21:00+12юв228792 0.6 101514
14 мая, пт
пт1400:00+12вюв2288100 0.0 101514
03:00+12в229335 0.8 101631
06:00+13вюв379294 0.0 1015162
09:00+18вюв61077100 0.0 1015488
12:00+22юв81263100 0.0 10131224
15:00+19ююв71377100 0.8 1014649
18:00+19вюв41080100 0.3 1011236
21:00+18вюв61382100 0.3 1010266
15 мая, сб
сб1500:00+16ююв31291100 0.3 1010234
03:00+15ююз3494100 0.3 101060
06:00+16ююз3489100 0.1 101185
09:00+17юз5978100 0.1 1013440
12:00+21юз57556 0.0 10131196
15:00+22ююз6852100 0.0 10132018
18:00+20ююз476455 0.0 1014420
21:00+15з227886 0.0 101411
16 мая, вс
вс1600:00+14вюв1178100 0.0 101510
03:00+14вюв228199 0.0 101514
06:00+14юв11820 0.0 101515
09:00+20вюв22650 0.0 1015478
12:00+23в235141 0.0 10151433
15:00+24всв3351100 0.0 10141586
18:00+23св2464100 0.0 1013146
21:00+18всв337949 0.0 101325
17 мая, пн
пн1700:00+16всв457837 0.0 101273
03:00+15всв4982100 0.0 1012136
06:00+15в368236 0.0 1011113
09:00+22вюв595788 0.0 1012422
12:00+24вюв61050100 0.0 1010753
15:00+26вюв711516 0.0 10091419
18:00+23вюв71462100 0.0 1009598
21:00+19вюв616696 0.0 1009347